contact:dominique.lefevre@mio.osupytheas.fr, maurice.libes@osupytheas.fr, didier.mallarino@osupytheas.fr
Project:EMSO http://www.emso-fr.org/EMSO-France
Depth: 2436.0 m
Title:EMSO Ligure Ouest : Data MII capteur AQUADOPP
Date,Latitude,Longitude,X_East,Y_North,Z_Up,Amplitude_X,Amplitude_Y,Amplitude_Z,Batterie,SoundSpeed,Heading,Pitch,Roll,Pressure,TIS,Speed,Direction
, degrees North, degrees East, m.s-1, m.s-1,m.s-1, 1, 1, 1, Volt, m.s-1, degree, degree, degree, dbar, degree_C, m.s-1, degree
2022-01-19T00:04:03,42.805,6.029,0.025,-0.029,0.002,102.0,102.0,100.0,13.4,1505.2,324.0,-0.8,1.8,2470.498,13.28,0.038,139.2
2022-01-19T00:07:03,42.805,6.029,0.021,-0.017,0.004,101.0,102.0,100.0,13.3,1505.2,327.2,-0.7,1.8,2470.519,13.28,0.027,129.0
2022-01-19T00:10:03,42.805,6.029,0.017,-0.029,-0.008,101.0,101.0,100.0,13.4,1505.2,329.4,-0.8,1.8,2470.507,13.28,0.033,149.6
2022-01-19T00:13:03,42.805,6.029,0.048,-0.038,-0.02,100.0,101.0,101.0,13.4,1505.2,327.4,-0.8,1.8,2470.53,13.28,0.061,128.4
2022-01-19T00:16:03,42.805,6.029,0.025,-0.026,-0.011,102.0,101.0,100.0,13.4,1505.2,331.1,-0.7,1.8,2470.55,13.28,0.036,136.1
2022-01-19T00:19:03,42.805,6.029,0.036,-0.03,-0.019,101.0,101.0,100.0,13.4,1505.2,324.6,-0.7,1.8,2470.527,13.28,0.046,129.8
2022-01-19T00:22:03,42.805,6.029,0.029,-0.03,-0.002,102.0,101.0,100.0,13.4,1505.2,329.9,-0.7,1.8,2470.559,13.28,0.041,136.0
2022-01-19T00:25:03,42.805,6.029,0.034,-0.013,-0.015,100.0,100.0,101.0,13.4,1505.2,324.2,-0.8,1.8,2470.539,13.28,0.036,110.9
2022-01-19T00:28:03,42.805,6.029,0.028,-0.032,-0.024,100.0,101.0,101.0,13.4,1505.2,329.9,-0.7,1.8,2470.547,13.28,0.042,138.8
2022-01-19T00:31:03,42.805,6.029,0.051,-0.031,-0.009,102.0,101.0,101.0,13.4,1505.2,324.8,-0.8,1.9,2470.563,13.28,0.059,121.3
2022-01-19T00:34:03,42.805,6.029,0.042,-0.047,-0.002,102.0,101.0,100.0,13.3,1505.2,325.9,-0.7,1.8,2470.512,13.28,0.063,138.2
2022-01-19T00:37:03,42.805,6.029,0.023,-0.044,-0.005,101.0,101.0,101.0,13.4,1505.2,328.8,-0.7,1.8,2470.528,13.28,0.049,152.4
2022-01-19T00:40:03,42.805,6.029,0.03,-0.027,-0.031,101.0,101.0,99.0,13.4,1505.2,329.9,-0.8,1.8,2470.551,13.28,0.04,132.0
2022-01-19T00:43:03,42.805,6.029,0.029,-0.046,-0.024,101.0,103.0,101.0,13.3,1505.2,326.8,-0.8,1.8,2470.578,13.28,0.054,147.8
2022-01-19T00:46:03,42.805,6.029,0.018,-0.022,0.017,101.0,101.0,101.0,13.4,1505.2,323.4,-0.7,1.8,2470.554,13.28,0.028,140.7
2022-01-19T00:49:03,42.805,6.029,0.013,-0.035,-0.025,100.0,102.0,100.0,13.4,1505.2,327.9,-0.7,1.9,2470.538,13.28,0.037,159.6
2022-01-19T00:52:03,42.805,6.029,0.037,-0.033,-0.012,102.0,100.0,101.0,13.3,1505.2,327.2,-0.7,1.8,2470.532,13.28,0.049,131.7
2022-01-19T00:55:03,42.805,6.029,0.043,-0.046,-0.029,101.0,102.0,100.0,13.4,1505.2,327.7,-0.7,1.9,2470.54,13.28,0.062,136.9
2022-01-19T00:58:03,42.805,6.029,0.05,-0.032,0.006,101.0,100.0,100.0,13.4,1505.2,327.6,-0.8,1.8,2470.494,13.28,0.059,122.6
2022-01-19T01:04:03,42.805,6.029,0.024,-0.047,-0.075,102.0,103.0,103.0,13.3,1505.2,323.7,-0.8,1.8,2470.576,13.28,0.052,153.0
2022-01-19T01:07:03,42.805,6.029,0.054,-0.045,-0.036,103.0,101.0,102.0,13.3,1505.2,325.8,-0.8,1.8,2470.57,13.28,0.07,129.8
2022-01-19T01:10:03,42.805,6.029,0.011,-0.053,-0.039,101.0,101.0,100.0,13.4,1505.2,325.5,-0.7,1.8,2470.521,13.28,0.054,168.3
2022-01-19T01:13:03,42.805,6.029,0.03,-0.035,-0.022,101.0,102.0,100.0,13.4,1505.2,330.4,-0.8,1.8,2470.554,13.28,0.046,139.4
2022-01-19T01:16:03,42.805,6.029,0.032,-0.034,-0.008,102.0,101.0,100.0,13.3,1505.2,326.2,-0.8,1.9,2470.514,13.28,0.046,136.7
2022-01-19T01:19:03,42.805,6.029,0.034,-0.04,-0.011,102.0,101.0,100.0,13.4,1505.2,326.4,-0.7,1.8,2470.529,13.28,0.052,139.6
2022-01-19T01:22:03,42.805,6.029,0.02,-0.018,-0.022,102.0,100.0,101.0,13.3,1505.2,328.2,-0.8,1.8,2470.537,13.28,0.026,132.0
2022-01-19T01:25:03,42.805,6.029,0.025,-0.032,-0.023,103.0,100.0,100.0,13.4,1505.2,324.8,-0.7,1.8,2470.501,13.28,0.04,142.0
2022-01-19T01:28:03,42.805,6.029,0.048,-0.025,-0.012,101.0,101.0,100.0,13.3,1505.2,325.9,-0.8,1.8,2470.537,13.28,0.054,117.5
2022-01-19T01:31:03,42.805,6.029,0.035,-0.021,-0.033,102.0,101.0,100.0,13.4,1505.2,326.1,-0.8,1.8,2470.527,13.28,0.04,121.0
2022-01-19T01:34:03,42.805,6.029,0.022,-0.027,-0.017,101.0,102.0,101.0,13.3,1505.2,328.9,-0.7,1.8,2470.495,13.28,0.034,140.8
2022-01-19T01:37:03,42.805,6.029,0.008,-0.03,-0.025,101.0,101.0,100.0,13.4,1505.2,327.5,-0.8,1.8,2470.518,13.28,0.031,165.1
2022-01-19T01:40:03,42.805,6.029,0.009,-0.021,0.0,102.0,101.0,100.0,13.3,1505.2,326.5,-0.8,1.8,2470.523,13.28,0.022,156.8
2022-01-19T01:43:03,42.805,6.029,0.026,-0.029,-0.019,102.0,101.0,101.0,13.4,1505.2,323.8,-0.8,1.8,2470.504,13.28,0.038,138.1
2022-01-19T01:46:03,42.805,6.029,0.012,-0.022,-0.004,101.0,102.0,101.0,13.4,1505.2,328.2,-0.7,1.8,2470.524,13.28,0.025,151.4
2022-01-19T01:49:03,42.805,6.029,0.019,-0.029,-0.004,101.0,101.0,100.0,13.4,1505.2,325.8,-0.7,1.8,2470.548,13.28,0.034,146.8
2022-01-19T01:52:03,42.805,6.029,0.024,-0.042,-0.045,101.0,102.0,100.0,13.4,1505.2,330.2,-0.8,1.8,2470.561,13.28,0.048,150.3
2022-01-19T01:55:03,42.805,6.029,0.005,-0.036,-0.027,102.0,102.0,100.0,13.4,1505.2,324.6,-0.7,1.8,2470.545,13.28,0.036,172.1
2022-01-19T01:58:03,42.805,6.029,0.031,-0.026,-0.019,101.0,101.0,101.0,13.4,1505.2,331.3,-0.7,1.8,2470.559,13.28,0.04,130.0
2022-01-19T02:04:03,42.805,6.029,0.025,-0.05,-0.005,101.0,101.0,100.0,13.3,1505.2,326.5,-0.8,1.8,2470.622,13.28,0.055,153.4
2022-01-19T02:07:03,42.805,6.029,0.029,-0.006,-0.032,101.0,102.0,100.0,13.4,1505.2,328.3,-0.8,1.8,2470.599,13.28,0.029,101.7
2022-01-19T02:10:03,42.805,6.029,0.026,-0.021,0.013,102.0,100.0,101.0,13.4,1505.2,328.3,-0.7,1.8,2470.567,13.28,0.033,128.9
2022-01-19T02:13:03,42.805,6.029,0.015,-0.028,-0.032,102.0,102.0,100.0,13.4,1505.2,328.1,-0.7,1.8,2470.568,13.28,0.031,151.8
2022-01-19T02:16:03,42.805,6.029,0.004,-0.039,-0.003,103.0,101.0,101.0,13.4,1505.2,328.8,-0.7,1.8,2470.586,13.28,0.039,174.1
2022-01-19T02:19:03,42.805,6.029,0.002,-0.021,0.007,100.0,100.0,101.0,13.3,1505.2,326.8,-0.7,1.8,2470.593,13.28,0.021,174.6
2022-01-19T02:22:03,42.805,6.029,0.018,-0.028,-0.023,101.0,103.0,100.0,13.4,1505.2,326.1,-0.7,1.8,2470.589,13.28,0.033,147.3
2022-01-19T02:25:03,42.805,6.029,0.014,-0.014,0.013,101.0,102.0,100.0,13.4,1505.2,328.8,-0.7,1.8,2470.598,13.28,0.019,135.0
2022-01-19T02:28:03,42.805,6.029,0.022,-0.055,-0.021,102.0,100.0,100.0,13.4,1505.2,324.5,-0.8,1.8,2470.546,13.28,0.059,158.2
2022-01-19T02:31:03,42.805,6.029,0.018,-0.023,-0.038,101.0,102.0,101.0,13.4,1505.2,329.1,-0.7,1.8,2470.577,13.28,0.029,142.0
2022-01-19T02:34:03,42.805,6.029,0.022,-0.024,-0.024,101.0,101.0,100.0,13.4,1505.2,327.4,-0.7,1.8,2470.606,13.28,0.032,137.5
2022-01-19T02:37:03,42.805,6.029,0.039,-0.031,-0.007,100.0,102.0,101.0,13.4,1505.2,326.1,-0.7,1.8,2470.613,13.28,0.049,128.5
2022-01-19T02:40:03,42.805,6.029,0.022,-0.018,0.008,101.0,101.0,101.0,13.3,1505.2,326.4,-0.7,1.8,2470.58,13.28,0.028,129.3
2022-01-19T02:43:03,42.805,6.029,0.014,-0.025,0.025,101.0,101.0,101.0,13.3,1505.2,329.0,-0.7,1.8,2470.597,13.28,0.028,150.7
2022-01-19T02:46:03,42.805,6.029,0.016,-0.038,-0.013,100.0,101.0,100.0,13.4,1505.2,330.7,-0.7,1.8,2470.603,13.28,0.041,157.2
2022-01-19T02:49:03,42.805,6.029,0.005,-0.004,0.006,102.0,101.0,100.0,13.4,1505.2,326.7,-0.8,1.8,2470.6,13.28,0.006,128.7
2022-01-19T02:52:03,42.805,6.029,0.0,-0.015,-0.044,101.0,100.0,101.0,13.4,1505.2,331.9,-0.8,1.8,2470.618,13.28,0.015,180.0
2022-01-19T02:55:03,42.805,6.029,0.007,0.001,0.001,103.0,99.0,100.0,13.4,1505.2,325.7,-0.8,1.8,2470.616,13.28,0.007,81.9
2022-01-19T02:58:03,42.805,6.029,0.024,-0.025,0.019,101.0,101.0,100.0,13.4,1505.2,331.2,-0.8,1.8,2470.603,13.28,0.034,136.2
2022-01-19T03:04:03,42.805,6.029,0.036,-0.034,0.001,101.0,102.0,100.0,13.4,1505.2,328.5,-0.8,1.8,2470.667,13.28,0.049,133.4
2022-01-19T03:07:03,42.805,6.029,-0.006,-0.013,-0.035,101.0,101.0,100.0,13.3,1505.2,326.5,-0.8,1.8,2470.664,13.28,0.014,204.8
2022-01-19T03:10:03,42.805,6.029,-0.003,-0.033,-0.048,101.0,101.0,101.0,13.3,1505.2,326.5,-0.8,1.8,2470.663,13.28,0.033,185.2
2022-01-19T03:13:03,42.805,6.029,0.03,-0.026,-0.015,102.0,103.0,99.0,13.4,1505.2,327.0,-0.7,1.9,2470.68,13.28,0.039,130.9
2022-01-19T03:16:03,42.805,6.029,0.009,-0.024,-0.03,102.0,102.0,100.0,13.3,1505.2,326.5,-0.8,1.8,2470.641,13.28,0.025,159.4
2022-01-19T03:19:03,42.805,6.029,0.008,-0.012,-0.019,102.0,101.0,101.0,13.4,1505.2,329.6,-0.8,1.8,2470.651,13.28,0.014,146.3
2022-01-19T03:22:03,42.805,6.029,0.02,-0.03,-0.017,101.0,101.0,101.0,13.4,1505.2,329.0,-0.8,1.8,2470.617,13.28,0.036,146.3
2022-01-19T03:25:03,42.805,6.029,0.008,-0.03,-0.027,101.0,101.0,100.0,13.3,1505.2,325.8,-0.8,1.8,2470.645,13.28,0.031,165.1
2022-01-19T03:28:03,42.805,6.029,0.006,-0.009,-0.002,103.0,99.0,101.0,13.4,1505.2,328.7,-0.8,1.8,2470.615,13.28,0.01,146.3
2022-01-19T03:31:03,42.805,6.029,0.004,-0.01,-0.011,102.0,101.0,100.0,13.4,1505.2,330.9,-0.7,1.8,2470.63,13.28,0.01,158.2
2022-01-19T03:34:03,42.805,6.029,0.02,-0.01,-0.005,102.0,102.0,100.0,13.4,1505.2,330.5,-0.7,1.8,2470.679,13.28,0.022,116.6
2022-01-19T03:37:03,42.805,6.029,0.024,-0.019,-0.003,103.0,101.0,101.0,13.3,1505.2,325.3,-0.8,1.8,2470.662,13.28,0.03,128.4
2022-01-19T03:40:03,42.805,6.029,0.02,-0.029,-0.044,103.0,103.0,99.0,13.4,1505.2,329.4,-0.8,1.8,2470.627,13.28,0.035,145.4
2022-01-19T03:43:03,42.805,6.029,0.017,-0.036,-0.006,102.0,102.0,100.0,13.3,1505.2,327.0,-0.7,1.8,2470.659,13.28,0.039,154.7
2022-01-19T03:46:03,42.805,6.029,0.016,-0.017,-0.002,101.0,101.0,101.0,13.4,1505.2,329.8,-0.8,1.8,2470.658,13.28,0.023,136.7
2022-01-19T03:49:03,42.805,6.029,0.03,-0.038,-0.022,102.0,101.0,100.0,13.4,1505.2,329.7,-0.8,1.8,2470.662,13.28,0.048,141.7
2022-01-19T03:52:03,42.805,6.029,0.017,0.004,0.019,101.0,101.0,99.0,13.4,1505.2,324.3,-0.8,1.8,2470.647,13.28,0.017,76.8
2022-01-19T03:55:03,42.805,6.029,0.012,-0.023,-0.028,102.0,99.0,101.0,13.4,1505.2,326.2,-0.7,1.8,2470.616,13.28,0.025,152.4
2022-01-19T03:58:03,42.805,6.029,0.018,-0.017,-0.009,103.0,99.0,101.0,13.4,1505.2,326.4,-0.7,1.8,2470.66,13.28,0.024,133.4
2022-01-19T04:04:03,42.805,6.029,0.043,-0.048,-0.014,102.0,103.0,101.0,13.4,1505.2,325.4,-0.8,1.8,2470.713,13.28,0.064,138.1
2022-01-19T04:07:03,42.805,6.029,0.031,-0.039,-0.007,102.0,102.0,101.0,13.4,1505.2,327.5,-0.8,1.8,2470.679,13.28,0.049,141.5
2022-01-19T04:10:03,42.805,6.029,-0.006,0.007,0.037,101.0,102.0,101.0,13.4,1505.2,327.6,-0.8,1.8,2470.695,13.28,0.009,319.4
2022-01-19T04:13:03,42.805,6.029,0.042,-0.021,-0.003,102.0,102.0,100.0,13.3,1505.2,326.4,-0.7,1.8,2470.715,13.28,0.046,116.6
2022-01-19T04:16:03,42.805,6.029,0.037,-0.029,0.011,101.0,102.0,100.0,13.3,1505.2,324.4,-0.8,1.8,2470.7,13.28,0.047,128.1
2022-01-19T04:19:03,42.805,6.029,0.01,-0.007,0.008,102.0,102.0,101.0,13.3,1505.2,328.1,-0.7,1.8,2470.667,13.28,0.012,125.0
2022-01-19T04:22:03,42.805,6.029,0.035,-0.015,0.004,101.0,102.0,101.0,13.3,1505.2,326.0,-0.8,1.8,2470.702,13.28,0.038,113.2
2022-01-19T04:25:03,42.805,6.029,0.003,-0.018,-0.027,103.0,102.0,101.0,13.3,1505.2,325.8,-0.7,1.8,2470.663,13.28,0.018,170.5
2022-01-19T04:28:03,42.805,6.029,0.016,-0.019,0.003,102.0,101.0,101.0,13.4,1505.2,326.7,-0.8,1.8,2470.702,13.28,0.024,139.9
2022-01-19T04:31:03,42.805,6.029,0.027,-0.023,-0.003,102.0,101.0,102.0,13.4,1505.2,326.0,-0.8,1.8,2470.696,13.28,0.035,130.4
2022-01-19T04:34:03,42.805,6.029,0.048,-0.021,0.04,101.0,102.0,102.0,13.4,1505.2,325.6,-0.8,1.8,2470.689,13.28,0.052,113.6
2022-01-19T04:37:03,42.805,6.029,0.005,-0.017,-0.011,102.0,102.0,100.0,13.4,1505.2,326.5,-0.8,1.8,2470.707,13.28,0.017,163.6
2022-01-19T04:40:03,42.805,6.029,0.022,-0.015,-0.014,102.0,100.0,101.0,13.4,1505.2,329.1,-0.8,1.9,2470.669,13.28,0.026,124.3
2022-01-19T04:43:03,42.805,6.029,0.01,-0.002,-0.001,101.0,102.0,101.0,13.4,1505.2,327.9,-0.8,1.8,2470.714,13.28,0.01,101.3
2022-01-19T04:46:03,42.805,6.029,0.006,-0.004,-0.016,102.0,102.0,101.0,13.4,1505.2,330.6,-0.8,1.8,2470.69,13.28,0.007,123.7
2022-01-19T04:49:03,42.805,6.029,0.013,-0.008,0.001,102.0,102.0,101.0,13.4,1505.2,328.9,-0.7,1.8,2470.712,13.28,0.015,121.6
2022-01-19T04:52:03,42.805,6.029,0.027,-0.025,0.011,101.0,103.0,101.0,13.4,1505.2,324.7,-0.8,1.8,2470.732,13.28,0.036,132.8
2022-01-19T04:55:03,42.805,6.029,0.03,-0.015,-0.004,102.0,103.0,101.0,13.3,1505.2,329.0,-0.7,1.8,2470.711,13.28,0.033,116.6
2022-01-19T04:58:03,42.805,6.029,0.013,-0.018,0.01,100.0,101.0,102.0,13.3,1505.2,331.6,-0.8,1.8,2470.708,13.28,0.022,144.2
2022-01-19T05:04:03,42.805,6.029,0.006,-0.026,-0.008,101.0,101.0,101.0,13.4,1505.2,326.5,-0.8,1.8,2470.771,13.28,0.026,167.0
2022-01-19T05:07:03,42.805,6.029,0.014,-0.021,-0.018,101.0,101.0,101.0,13.4,1505.2,328.1,-0.8,1.8,2470.729,13.28,0.025,146.3
2022-01-19T05:10:03,42.805,6.029,0.016,-0.034,-0.024,100.0,102.0,101.0,13.4,1505.2,329.6,-0.7,1.8,2470.763,13.28,0.037,154.8
2022-01-19T05:13:03,42.805,6.029,0.034,-0.041,0.007,101.0,102.0,101.0,13.4,1505.2,331.4,-0.7,1.8,2470.734,13.28,0.053,140.3
2022-01-19T05:16:03,42.805,6.029,0.002,-0.027,-0.021,101.0,101.0,101.0,13.4,1505.2,326.3,-0.7,1.8,2470.763,13.28,0.027,175.8
2022-01-19T05:19:03,42.805,6.029,0.041,-0.011,0.013,102.0,101.0,101.0,13.4,1505.2,326.1,-0.8,1.8,2470.755,13.28,0.042,105.0
2022-01-19T05:22:03,42.805,6.029,0.033,-0.028,-0.019,100.0,103.0,100.0,13.3,1505.2,329.9,-0.8,1.8,2470.775,13.28,0.043,130.3
2022-01-19T05:25:03,42.805,6.029,0.004,-0.028,-0.016,101.0,101.0,101.0,13.4,1505.2,324.4,-0.8,1.8,2470.761,13.28,0.028,171.9
2022-01-19T05:28:03,42.805,6.029,0.023,-0.037,-0.023,101.0,100.0,100.0,13.4,1505.2,328.7,-0.7,1.8,2470.78,13.28,0.043,148.1
2022-01-19T05:31:03,42.805,6.029,0.029,-0.024,-0.01,101.0,103.0,100.0,13.3,1505.2,327.8,-0.8,1.9,2470.758,13.28,0.037,129.6
2022-01-19T05:34:03,42.805,6.029,0.013,-0.011,-0.025,101.0,102.0,101.0,13.3,1505.2,327.8,-0.8,1.8,2470.764,13.28,0.017,130.2
2022-01-19T05:37:03,42.805,6.029,0.012,-0.006,0.034,102.0,102.0,100.0,13.3,1505.2,328.3,-0.7,1.8,2470.797,13.28,0.013,116.6
2022-01-19T05:40:03,42.805,6.029,0.009,-0.011,0.013,101.0,101.0,100.0,13.4,1505.2,329.2,-0.8,1.8,2470.769,13.28,0.014,140.7
2022-01-19T05:43:03,42.805,6.029,-0.002,-0.042,-0.039,102.0,101.0,101.0,13.4,1505.2,328.9,-0.8,1.8,2470.781,13.28,0.042,182.7
2022-01-19T05:46:03,42.805,6.029,0.045,-0.046,-0.045,102.0,103.0,100.0,13.4,1505.2,328.0,-0.8,1.9,2470.8,13.28,0.064,135.6
2022-01-19T05:49:03,42.805,6.029,0.0,-0.027,0.001,103.0,100.0,101.0,13.4,1505.2,329.0,-0.8,1.8,2470.766,13.28,0.026,180.0
2022-01-19T05:52:03,42.805,6.029,-0.001,-0.007,-0.004,102.0,101.0,100.0,13.4,1505.2,329.6,-0.7,1.8,2470.804,13.28,0.007,188.1
2022-01-19T05:55:03,42.805,6.029,0.026,-0.021,-0.001,101.0,102.0,101.0,13.3,1505.2,323.3,-0.8,1.8,2470.808,13.28,0.033,128.9
2022-01-19T05:58:03,42.805,6.029,0.018,-0.028,-0.016,100.0,101.0,102.0,13.4,1505.2,323.3,-0.8,1.8,2470.807,13.28,0.033,147.3
2022-01-19T06:04:03,42.805,6.029,-0.011,-0.013,-0.033,101.0,101.0,101.0,13.4,1505.2,326.6,-0.7,1.8,2470.862,13.28,0.017,220.2
2022-01-19T06:07:03,42.805,6.029,0.011,0.001,0.002,102.0,101.0,101.0,13.4,1505.2,331.6,-0.7,1.8,2470.837,13.28,0.011,84.8
2022-01-19T06:10:03,42.805,6.029,0.046,-0.023,-0.003,103.0,100.0,101.0,13.4,1505.2,324.8,-0.7,1.8,2470.808,13.28,0.051,116.6
2022-01-19T06:13:03,42.805,6.029,0.007,-0.019,-0.002,103.0,102.0,101.0,13.4,1505.2,329.4,-0.7,1.8,2470.829,13.28,0.02,159.8
2022-01-19T06:16:03,42.805,6.029,-0.006,-0.026,-0.004,101.0,101.0,101.0,13.4,1505.2,327.0,-0.8,1.8,2470.827,13.28,0.026,193.0
2022-01-19T06:19:03,42.805,6.029,0.02,-0.015,-0.004,103.0,103.0,100.0,13.4,1505.2,326.4,-0.7,1.8,2470.828,13.28,0.025,126.9
2022-01-19T06:22:03,42.805,6.029,0.03,-0.042,-0.027,103.0,100.0,100.0,13.3,1505.2,329.0,-0.7,1.8,2470.851,13.28,0.051,144.5
2022-01-19T06:25:03,42.805,6.029,0.024,-0.004,0.001,101.0,102.0,101.0,13.4,1505.2,324.0,-0.7,1.8,2470.855,13.28,0.024,99.5
2022-01-19T06:28:03,42.805,6.029,0.019,-0.017,-0.02,102.0,101.0,101.0,13.4,1505.2,326.5,-0.7,1.8,2470.831,13.28,0.025,131.8
2022-01-19T06:31:03,42.805,6.029,0.02,0.0,-0.006,102.0,102.0,100.0,13.3,1505.2,325.6,-0.7,1.8,2470.863,13.28,0.02,90.0
2022-01-19T06:34:03,42.805,6.029,0.024,-0.03,-0.001,102.0,102.0,100.0,13.4,1505.2,329.6,-0.8,1.8,2470.79,13.28,0.038,141.3
2022-01-19T06:37:03,42.805,6.029,-0.031,-0.02,-0.015,102.0,101.0,101.0,13.3,1505.2,330.7,-0.7,1.8,2470.833,13.28,0.036,237.2
2022-01-19T06:40:03,42.805,6.029,0.043,-0.029,-0.005,102.0,102.0,101.0,13.4,1505.2,326.9,-0.8,1.8,2470.798,13.28,0.051,124.0
2022-01-19T06:43:03,42.805,6.029,0.028,-0.015,-0.008,102.0,102.0,101.0,13.4,1505.2,328.1,-0.8,1.8,2470.811,13.28,0.031,118.2
2022-01-19T06:46:03,42.805,6.029,0.023,-0.007,0.012,102.0,102.0,100.0,13.4,1505.2,331.3,-0.7,1.9,2470.837,13.28,0.024,106.9
2022-01-19T06:49:03,42.805,6.029,0.023,-0.015,-0.039,101.0,102.0,104.0,13.3,1505.2,331.0,-0.7,1.8,2470.824,13.28,0.027,123.1
2022-01-19T06:52:03,42.805,6.029,0.003,-0.027,-0.017,101.0,101.0,101.0,13.3,1505.2,326.6,-0.7,1.8,2470.867,13.28,0.027,173.7
2022-01-19T06:55:03,42.805,6.029,0.026,-0.032,-0.009,102.0,101.0,101.0,13.4,1505.2,326.3,-0.8,1.8,2470.843,13.28,0.041,140.9
2022-01-19T06:58:03,42.805,6.029,0.012,-0.005,0.018,103.0,102.0,101.0,13.3,1505.2,327.3,-0.7,1.9,2470.825,13.28,0.013,112.6
2022-01-19T07:04:03,42.805,6.029,0.017,-0.023,-0.02,101.0,101.0,101.0,13.3,1505.2,327.5,-0.8,1.8,2470.892,13.28,0.028,143.5
2022-01-19T07:07:03,42.805,6.029,0.031,-0.032,-0.018,102.0,99.0,102.0,13.4,1505.2,327.9,-0.8,1.8,2470.821,13.28,0.044,135.9
2022-01-19T07:10:03,42.805,6.029,0.018,-0.015,-0.003,102.0,100.0,101.0,13.3,1505.2,328.7,-0.7,1.8,2470.863,13.28,0.023,129.8
2022-01-19T07:13:03,42.805,6.029,0.025,-0.007,-0.023,102.0,100.0,101.0,13.4,1505.2,324.5,-0.8,1.8,2470.853,13.28,0.025,105.6
2022-01-19T07:16:03,42.805,6.029,0.019,0.001,0.002,102.0,101.0,101.0,13.4,1505.2,325.9,-0.8,1.8,2470.852,13.28,0.019,87.0
2022-01-19T07:19:03,42.805,6.029,0.01,-0.01,-0.03,103.0,102.0,101.0,13.4,1505.2,329.6,-0.7,1.8,2470.852,13.28,0.014,135.0
2022-01-19T07:22:03,42.805,6.029,0.014,-0.02,-0.029,102.0,101.0,101.0,13.4,1505.2,329.2,-0.8,1.8,2470.827,13.28,0.024,145.0
2022-01-19T07:25:03,42.805,6.029,0.0,-0.015,-0.037,101.0,101.0,100.0,13.4,1505.2,330.7,-0.8,1.8,2470.83,13.28,0.015,180.0
2022-01-19T07:28:03,42.805,6.029,0.045,-0.005,-0.005,102.0,101.0,101.0,13.4,1505.2,327.5,-0.8,1.8,2470.823,13.28,0.045,96.3
2022-01-19T07:31:03,42.805,6.029,0.012,-0.026,-0.003,102.0,102.0,101.0,13.3,1505.2,330.5,-0.7,1.8,2470.844,13.28,0.028,155.2
2022-01-19T07:34:03,42.805,6.029,0.007,-0.013,0.0,102.0,101.0,100.0,13.4,1505.2,326.7,-0.8,1.8,2470.877,13.28,0.014,151.7
2022-01-19T07:37:03,42.805,6.029,0.018,-0.039,-0.037,101.0,101.0,101.0,13.4,1505.2,330.9,-0.7,1.8,2470.849,13.28,0.042,155.2
2022-01-19T07:40:03,42.805,6.029,0.017,-0.03,-0.027,102.0,102.0,100.0,13.4,1505.2,329.2,-0.8,1.8,2470.872,13.28,0.034,150.5
2022-01-19T07:43:03,42.805,6.029,0.024,0.0,0.038,102.0,102.0,100.0,13.4,1505.2,326.3,-0.8,1.8,2470.866,13.28,0.024,90.0
2022-01-19T07:46:03,42.805,6.029,0.006,-0.009,0.012,103.0,102.0,100.0,13.4,1505.2,328.6,-0.7,1.8,2470.894,13.28,0.01,146.3
2022-01-19T07:49:03,42.805,6.029,0.018,-0.014,0.01,103.0,101.0,101.0,13.4,1505.2,329.1,-0.8,1.8,2470.841,13.28,0.022,127.9
2022-01-19T07:52:03,42.805,6.029,0.022,-0.008,0.01,101.0,103.0,101.0,13.4,1505.2,330.7,-0.8,1.8,2470.841,13.28,0.023,110.0
2022-01-19T07:55:03,42.805,6.029,0.008,-0.006,-0.032,103.0,102.0,101.0,13.4,1505.2,327.2,-0.8,1.8,2470.896,13.28,0.01,126.9
2022-01-19T07:58:03,42.805,6.029,0.007,-0.021,-0.009,102.0,102.0,101.0,13.4,1505.2,324.2,-0.8,1.8,2470.865,13.28,0.022,161.6
2022-01-19T08:04:03,42.805,6.029,0.038,-0.03,-0.006,102.0,102.0,101.0,13.4,1505.2,330.2,-0.8,1.8,2470.865,13.28,0.048,128.3
2022-01-19T08:07:03,42.805,6.029,0.022,-0.017,0.0,102.0,101.0,101.0,13.4,1505.2,325.6,-0.8,1.8,2470.91,13.28,0.027,127.7
2022-01-19T08:10:03,42.805,6.029,0.005,-0.016,-0.018,102.0,101.0,100.0,13.4,1505.2,331.5,-0.8,1.8,2470.888,13.28,0.016,162.6
2022-01-19T08:13:03,42.805,6.029,0.029,-0.021,0.004,102.0,101.0,101.0,13.4,1505.2,326.3,-0.8,1.8,2470.872,13.28,0.035,125.9
2022-01-19T08:16:03,42.805,6.029,0.021,-0.013,0.009,102.0,103.0,101.0,13.4,1505.2,325.1,-0.8,1.8,2470.877,13.28,0.024,121.8
2022-01-19T08:19:03,42.805,6.029,0.015,-0.036,-0.009,102.0,101.0,101.0,13.4,1505.2,327.2,-0.7,1.8,2470.884,13.28,0.039,157.4
2022-01-19T08:22:03,42.805,6.029,0.014,-0.027,-0.01,102.0,103.0,101.0,13.4,1505.2,326.6,-0.7,1.8,2470.877,13.28,0.03,152.6
2022-01-19T08:25:03,42.805,6.029,0.005,-0.027,-0.001,102.0,102.0,101.0,13.4,1505.2,328.8,-0.7,1.8,2470.869,13.28,0.027,169.5
2022-01-19T08:28:03,42.805,6.029,0.004,-0.001,-0.009,101.0,102.0,101.0,13.4,1505.2,324.6,-0.7,1.8,2470.876,13.28,0.004,104.0
2022-01-19T08:31:03,42.805,6.029,0.03,-0.013,0.008,102.0,102.0,101.0,13.4,1505.2,324.8,-0.8,1.8,2470.862,13.28,0.032,113.4
2022-01-19T08:34:03,42.805,6.029,0.02,-0.026,-0.008,101.0,101.0,101.0,13.3,1505.2,329.4,-0.8,1.8,2470.857,13.28,0.032,142.4
2022-01-19T08:37:03,42.805,6.029,0.005,-0.018,-0.004,102.0,101.0,101.0,13.4,1505.2,328.5,-0.8,1.8,2470.891,13.28,0.018,164.5
2022-01-19T08:40:03,42.805,6.029,0.023,-0.02,-0.015,103.0,101.0,101.0,13.4,1505.2,327.8,-0.7,1.8,2470.855,13.28,0.03,131.0
2022-01-19T08:43:03,42.805,6.029,0.026,-0.023,-0.007,103.0,101.0,101.0,13.4,1505.2,326.7,-0.7,1.8,2470.907,13.28,0.034,131.5
2022-01-19T08:46:03,42.805,6.029,0.023,-0.009,0.025,102.0,103.0,100.0,13.4,1505.2,329.6,-0.8,1.8,2470.883,13.28,0.024,111.4
2022-01-19T08:49:03,42.805,6.029,0.002,-0.019,-0.017,102.0,101.0,101.0,13.4,1505.2,327.4,-0.8,1.8,2470.832,13.28,0.019,174.0
2022-01-19T08:52:03,42.805,6.029,-0.009,-0.019,-0.021,101.0,100.0,102.0,13.3,1505.2,331.3,-0.7,1.8,2470.871,13.28,0.021,205.3
2022-01-19T08:55:03,42.805,6.029,0.0,-0.013,-0.01,102.0,102.0,102.0,13.4,1505.2,325.0,-0.7,1.8,2470.885,13.28,0.013,180.0
2022-01-19T08:58:03,42.805,6.029,0.027,-0.007,-0.021,102.0,102.0,100.0,13.4,1505.2,326.6,-0.8,1.8,2470.877,13.28,0.027,104.5
2022-01-19T09:04:03,42.805,6.029,0.009,-0.013,-0.021,102.0,101.0,101.0,13.4,1505.2,327.5,-0.7,1.8,2470.864,13.28,0.015,145.3
2022-01-19T09:07:03,42.805,6.029,0.03,-0.009,-0.02,102.0,102.0,102.0,13.3,1505.2,330.1,-0.8,1.8,2470.907,13.28,0.031,106.7
2022-01-19T09:10:03,42.805,6.029,0.02,-0.001,-0.017,102.0,102.0,101.0,13.3,1505.2,323.5,-0.8,1.8,2470.937,13.28,0.02,92.9
2022-01-19T09:13:03,42.805,6.029,0.021,-0.017,0.009,102.0,101.0,100.0,13.3,1505.2,325.3,-0.7,1.8,2470.877,13.28,0.027,129.0
2022-01-19T09:16:03,42.805,6.029,0.032,-0.013,-0.002,102.0,101.0,101.0,13.4,1505.2,331.2,-0.7,1.8,2470.876,13.28,0.034,112.1
2022-01-19T09:19:03,42.805,6.029,0.019,-0.009,-0.017,102.0,102.0,101.0,13.3,1505.2,324.1,-0.7,1.8,2470.934,13.28,0.021,115.3
2022-01-19T09:22:03,42.805,6.029,0.008,-0.004,0.005,103.0,101.0,101.0,13.3,1505.2,329.0,-0.8,1.8,2470.886,13.28,0.008,116.6
2022-01-19T09:25:03,42.805,6.029,0.023,-0.011,-0.021,102.0,101.0,101.0,13.4,1505.2,324.4,-0.8,1.8,2470.892,13.28,0.025,115.6
2022-01-19T09:28:03,42.805,6.029,0.01,-0.021,-0.015,101.0,102.0,101.0,13.4,1505.2,327.4,-0.7,1.8,2470.875,13.28,0.023,154.5
2022-01-19T09:31:03,42.805,6.029,0.013,-0.022,-0.001,102.0,103.0,101.0,13.4,1505.2,328.1,-0.8,1.8,2470.86,13.28,0.025,149.4
2022-01-19T09:34:03,42.805,6.029,0.017,-0.008,0.006,102.0,102.0,100.0,13.4,1505.2,325.4,-0.8,1.8,2470.905,13.28,0.018,115.2
2022-01-19T09:37:03,42.805,6.029,0.009,-0.001,0.007,102.0,102.0,101.0,13.4,1505.2,325.1,-0.7,1.8,2470.852,13.28,0.009,96.3
2022-01-19T09:40:03,42.805,6.029,0.023,-0.021,-0.005,103.0,101.0,101.0,13.3,1505.2,326.6,-0.8,1.8,2470.875,13.28,0.031,132.4
2022-01-19T09:43:03,42.805,6.029,0.02,-0.028,-0.003,101.0,102.0,101.0,13.4,1505.2,329.3,-0.8,1.8,2470.887,13.28,0.034,144.5
2022-01-19T09:46:03,42.805,6.029,0.023,-0.014,-0.006,101.0,102.0,100.0,13.4,1505.2,329.0,-0.7,1.8,2470.88,13.28,0.026,121.3
2022-01-19T09:49:03,42.805,6.029,0.0,-0.021,-0.016,100.0,102.0,101.0,13.4,1505.2,329.5,-0.7,1.8,2470.86,13.28,0.021,180.0
2022-01-19T09:52:03,42.805,6.029,-0.002,-0.017,-0.008,102.0,102.0,101.0,13.3,1505.2,323.6,-0.8,1.9,2470.866,13.28,0.017,186.7
2022-01-19T09:55:03,42.805,6.029,0.024,-0.03,-0.028,103.0,102.0,101.0,13.4,1505.2,330.7,-0.8,1.8,2470.895,13.28,0.038,141.3